Airfield :
LOGIN :

Register | Disclaimer

   EN    FR    IT 

 










Legend :    VFR   Marginal VFR   IFR   Intensive IFR   Very Intensive IFR
Visi :
Ceiling :
>= 8 km
>= 3000ft
5 to 8 km
1000 to 3000 ft
1500m to 5 km
500 to 1000 ft
800 to 1500m
200 to 500 ft
< 800m
< 200 ft
Symbols :   Thunderstorms  Fog  Heavy snow  Heavy precipitations  Wind > 20 kt
SIGMETs :     Misc.  Thunderstorms  Icing  Turbulence  Mountain Waves  Volcanic Ashes







- Airport Elevation : 1000 ft
- IATA code : PEV


LHPP - Pécs Pogany

CURRENT METAR :
  • 211315Z 29008KT 9999 FEW046 BKN200 12/00 Q1027

EXPIRED METARs :
  • 211245Z 28008KT 9999 FEW046 BKN200 12/00 Q1027
  • 211215Z 26008KT 9999 FEW046 BKN200 12/00 Q1027
  • 211145Z 24006KT 9999 FEW046 BKN200 12/00 Q1028
  • 211115Z 28005KT 9999 FEW046 BKN200 11/M00 Q1028
  • 211045Z 26006KT 9999 FEW046 BKN200 11/M01 Q1028

TAF TAF LHPP
Valid from the 21 at 12:00 until the 21 at 21:00 UTC


211115Z 2112/2121 28007KT CAVOK
BECMG 2116/2118 VRB03KT
BECMG 2119/2121 BKN040 OVC060
No reported NOTAMs for that airfield.



MET'MAP, your aeronautical weather chart ! - Copyright ORBIFLY December 2007 - Disclaimer

ORBIFLY MET'MAP TEAM :

Programming & Development : Alexandra Zaïnal
Concept & Development : Baudouin d'Aumeries
Co-Development & Prog : Marc-Olivier Méhu
Technical & hardware support : Manuel Goepfert

Contact : metmap@orbifly.com




SOURCES & CREDITS :

   NOAA